Home   Weather   City of Washington   Past weeks
Flag for USA

Past Weather in City of Washington, Kansas, USA — Yesterday and Last 2 Weeks

Now
91 °F

Sunny.


Feels Like: 100 °F
Forecast: 91 / 69 °F
Wind: 6 mph from Southwest

Location: Hebron Municipal Airport

Current Time: Jul 16, 2019 at 6:16:15 pm

Latest Report: Jul 16, 2019 at 5:35 pm


Visibility: 10 mi

Pressure: 29.87 "Hg

Humidity: 57%

Dew Point: 74 °F

Location of City of WashingtonLocation

Past Weather in City of Washington — Graph

°F

City of Washington Temperature Yesterday

Maximum temperature yesterday: 89 °F (at 3:55 pm)
Minimum temperature yesterday: 72 °F (at 6:35 am)
Average temperature yesterday: 80 °F

High & Low Weather Summary for the Past Weeks

 TemperatureHumidityPressure
High91 °F (Jul 2, 5:15 pm)98% (Jul 7, 2:35 am)30.20 "Hg (Jul 7, 2:35 am)
Low62 °F (Jul 12, 6:15 am)40% (Jul 1, 5:15 pm)29.77 "Hg (Jul 9, 4:55 am)
Average77 °F76%30.00 "Hg
* Reported Jul 1 4:15 pm — Jul 16 4:55 pm, City of Washington. Weather by CustomWeather, © 2019

Note: Actual official high and low records may vary slightly from our data, if they occured in-between our weather recording intervals... More about our weather records

Advertising

City of Washington Weather History for the Previous 24 Hours

Scroll right to see more
 ConditionsComfort  
Time TempWeatherWind HumidityBarometerVisibility
4:55 pm
Tue, Jul 16
90 °FSunny.7 mph58%29.88 "Hg10 mi
4:35 pm90 °FSunny.6 mph59%29.88 "Hg10 mi
4:15 pm90 °FScattered clouds.7 mph58%29.89 "Hg10 mi
3:35 pm89 °FSunny.3 mph59%29.90 "Hg10 mi
2:55 pm87 °FSunny.3 mph63%29.91 "Hg10 mi
2:35 pm86 °FSunny.5 mph64%29.91 "Hg10 mi
2:15 pm86 °FSunny.7 mph65%29.92 "Hg10 mi
1:55 pm84 °FSunny.7 mph64%29.91 "Hg10 mi
1:35 pm83 °FScattered clouds.9 mph65%29.91 "Hg10 mi
12:55 pm84 °FPartly sunny.14 mph61%29.90 "Hg10 mi
12:35 pm84 °FScattered clouds.16 mph64%29.90 "Hg10 mi
12:15 pm84 °FSunny.16 mph63%29.90 "Hg10 mi
11:55 am82 °FSunny.14 mph66%29.90 "Hg10 mi
11:35 am82 °FSunny.16 mph69%29.90 "Hg10 mi
11:15 am79 °FScattered clouds.12 mph79%29.91 "Hg10 mi
10:55 am77 °FRain. Broken clouds.7 mph85%29.93 "Hg4 mi
10:35 am80 °FScattered clouds.8 mph76%29.95 "Hg10 mi
9:55 am76 °FScattered clouds.7 mph84%29.96 "Hg10 mi
9:35 am75 °FScattered clouds.5 mph84%29.96 "Hg10 mi
8:55 am73 °FScattered clouds.5 mph89%29.96 "Hg10 mi
8:35 am72 °FBroken clouds.No wind92%29.98 "Hg10 mi
8:15 am71 °FBroken clouds.3 mph94%29.98 "Hg10 mi
7:55 am71 °FRain. Broken clouds.8 mph95%29.96 "Hg7 mi
7:35 am71 °FRain. Mostly cloudy.3 mph92%29.99 "Hg7 mi
6:55 am73 °FThunderstorms. Cloudy.8 mph91%30.00 "Hg10 mi
6:35 am73 °FMore clouds than sun.6 mph89%29.98 "Hg10 mi
5:55 am73 °FOvercast.8 mph88%29.97 "Hg10 mi
5:35 am71 °FPartly cloudy.No wind93%29.95 "Hg10 mi
5:15 am70 °FClear.No wind94%29.92 "Hg10 mi
4:55 am70 °FClear.No wind93%29.91 "Hg10 mi
4:35 am70 °FClear.No wind93%29.91 "Hg10 mi
4:15 am71 °FClear.No wind93%29.91 "Hg10 mi
3:55 am71 °FClear.No wind92%29.92 "Hg10 mi
3:35 am70 °FClear.No wind94%29.92 "Hg10 mi
2:55 am73 °FClear.3 mph86%29.92 "Hg10 mi
2:35 am73 °FClear.No wind84%29.91 "Hg10 mi
2:10 am74 °FClear.7 mph85%29.90 "Hg10 mi
1:55 am74 °FClear.8 mph83%29.90 "Hg10 mi
1:35 am74 °FClear.12 mph84%29.89 "Hg10 mi
12:55 am74 °FClear.7 mph83%29.91 "Hg10 mi
12:35 am74 °FClear.7 mph83%29.92 "Hg10 mi
12:15 am75 °FClear.8 mph81%29.91 "Hg10 mi
11:55 pm
Mon, Jul 15
76 °FClear.7 mph80%29.92 "Hg10 mi
11:35 pm76 °FClear.8 mph79%29.91 "Hg10 mi
10:55 pm76 °FClear.6 mph81%29.92 "Hg10 mi
10:35 pm75 °FClear.5 mph85%29.92 "Hg10 mi
10:15 pm76 °FClear.No wind84%29.92 "Hg10 mi
9:35 pm77 °FClear.5 mph82%29.90 "Hg10 mi
9:15 pm78 °FClear.5 mph80%29.90 "Hg10 mi
8:55 pm79 °FSunny.6 mph79%29.90 "Hg10 mi
8:35 pm81 °FSunny.5 mph75%29.90 "Hg10 mi
8:15 pm83 °FSunny.3 mph69%29.90 "Hg10 mi
7:55 pm84 °FSunny.5 mph65%29.90 "Hg10 mi
7:15 pm86 °FSunny.5 mph60%29.90 "Hg10 mi
6:55 pm87 °FSunny.6 mph60%29.90 "Hg10 mi
6:35 pm87 °FSunny.7 mph58%29.89 "Hg10 mi
6:15 pm88 °FSunny.7 mph59%29.89 "Hg10 mi
Weather by CustomWeather, © 2019

See weather overview

LIVE PARTIAL LUNAR ECLIPSE – Watch the eclipse as it happens